Date,TemperatureHighF,TemperatureAvgF,TemperatureLowF,DewpointHighF,DewpointAvgF,DewpointLowF,HumidityHigh,HumidityAvg,HumidityLow,PressureMaxIn,PressureMinIn,WindSpeedMaxMPH,WindSpeedAvgMPH,GustSpeedMaxMPH,PrecipitationSumIn
2013-1-1,50.1,40.1,34.4,36.4,32.0,28.9,86,74,44,30.29,30.18,20,1,20,0.00
2013-1-2,54.0,40.7,31.4,36.3,31.9,26.8,84,72,48,30.26,30.13,14,1,14,0.00
2013-1-3,52.2,40.1,31.5,36.8,32.4,27.5,86,75,51,30.27,30.17,10,0,10,0.00
2013-1-4,53.3,41.1,32.4,41.5,34.9,28.6,87,79,58,30.30,30.19,12,0,12,0.00
2013-1-5,51.0,42.9,35.3,42.2,38.0,31.5,90,83,69,30.28,30.08,19,0,19,0.47
2013-1-6,50.8,44.6,38.4,44.3,40.5,34.8,91,86,71,30.18,30.08,18,0,18,0.34
2013-1-7,47.0,39.8,34.4,42.4,36.7,31.5,100,89,84,30.26,30.13,17,0,17,0.00
2013-1-8,54.0,44.0,36.6,43.8,39.0,33.6,90,83,66,30.25,30.13,17,0,17,0.00
2013-1-9,48.8,44.4,39.6,44.1,40.3,34.8,90,86,76,30.18,29.91,17,1,18,0.04
2013-1-10,49.2,39.7,33.0,37.1,32.1,28.1,88,75,51,30.15,30.02,35,1,35,0.00
2013-1-11,48.8,37.5,29.9,34.9,29.4,25.7,86,74,48,30.23,30.11,12,0,12,0.00
2013-1-12,46.3,35.9,28.5,28.8,24.8,17.8,81,66,35,30.24,30.14,17,0,17,0.00
2013-1-13,47.6,34.8,26.1,30.9,23.8,16.0,84,65,46,30.26,30.14,26,1,26,0.00
2013-1-14,48.3,36.8,26.7,26.2,20.9,15.2,73,54,30,30.41,30.19,18,1,18,0.00
2013-1-15,50.6,39.3,31.5,32.7,28.9,25.0,80,67,47,30.50,30.39,12,0,12,0.00
2013-1-16,56.0,40.9,30.6,36.4,31.2,26.0,84,70,42,30.45,30.27,14,0,14,0.00
2013-1-17,58.9,42.6,31.2,36.1,31.9,26.0,83,68,40,30.29,30.17,13,0,13,0.00
2013-1-18,60.0,43.6,32.1,37.6,32.4,26.9,82,67,39,30.25,30.14,16,1,16,0.00
2013-1-19,60.0,44.5,35.0,37.1,32.8,29.5,81,66,39,30.28,30.17,12,1,22,0.00
2013-1-20,60.0,44.6,33.3,37.1,32.7,28.3,82,65,37,30.25,30.12,13,0,13,0.00
2013-1-21,60.2,44.8,33.3,39.7,34.5,28.1,83,69,44,30.20,30.11,17,0,17,0.00
2013-1-22,63.2,46.7,34.4,41.4,36.6,29.8,85,70,43,30.16,30.02,14,0,14,0.00
2013-1-23,45.9,44.5,43.8,38.7,38.0,36.4,81,78,69,30.06,29.97,7,0,7,0.00
2013-1-24,53.0,50.7,46.7,49.9,47.8,44.2,92,90,84,30.20,30.07,15,0,15,0.08
2013-1-25,64.5,55.4,50.8,55.0,50.6,-24.6,93,84,66,30.19,30.02,24,1,24,0.02
2013-1-26,58.9,51.5,43.8,50.9,45.4,38.3,93,80,51,30.03,29.92,39,1,39,0.00
2013-1-27,54.9,44.3,37.3,40.8,36.4,33.3,88,75,53,30.15,30.01,21,0,21,0.04
2013-1-28,55.3,43.8,33.9,36.7,33.4,29.6,85,69,44,30.22,30.12,27,2,27,0.00
2013-1-29,57.5,48.5,36.4,39.4,36.9,32.0,84,65,47,30.33,30.22,36,2,36,0.00
2013-1-30,60.3,47.2,36.9,43.9,38.6,32.5,85,73,53,30.35,30.25,18,0,18,0.00
2013-1-31,64.1,49.3,38.9,45.9,40.5,34.5,85,73,50,30.30,30.18,14,0,14,0.00
2013-2-1,65.7,50.2,38.0,46.6,40.8,33.9,86,72,46,30.23,30.12,6,0,11,0.00
2013-2-2,63.8,50.1,42.3,45.2,41.5,37.5,84,73,50,30.28,30.18,14,0,14,0.00
2013-2-3,63.2,48.8,39.8,48.1,41.4,36.2,89,77,54,30.23,30.10,12,0,19,0.00
2013-2-4,63.6,49.8,39.8,48.4,41.9,35.6,87,75,53,30.17,30.03,18,0,18,0.00
2013-2-5,53.5,44.7,39.6,43.8,39.7,36.3,100,83,67,30.12,30.03,21,0,21,0.00
2013-2-6,59.4,46.3,36.2,41.8,37.0,32.4,88,72,43,30.17,30.08,22,1,22,0.00
2013-2-7,55.8,46.0,40.2,43.4,37.9,33.0,85,74,52,30.16,29.98,20,1,20,0.00
2013-2-8,56.2,45.0,36.0,40.1,32.8,26.5,84,65,40,29.99,29.89,31,2,31,0.00
2013-2-9,55.1,42.6,32.1,35.4,30.1,24.5,78,62,41,30.09,29.94,22,1,22,0.00
2013-2-10,57.8,44.9,34.8,37.9,33.9,29.7,83,67,43,30.12,29.99,28,1,28,0.00
2013-2-11,59.4,45.5,33.0,38.5,33.2,27.8,82,64,41,30.24,30.05,14,0,14,0.00
2013-2-12,62.3,47.7,36.9,38.5,34.9,30.6,79,63,39,30.37,30.23,14,0,14,0.00
2013-2-13,63.2,48.4,36.9,41.6,36.9,31.6,82,66,42,30.33,30.19,14,0,14,0.00
2013-2-14,67.0,50.7,38.0,44.9,39.8,33.0,83,68,41,30.25,30.15,17,0,17,0.00
2013-2-15,72.6,53.8,40.9,47.5,41.2,35.5,81,65,38,30.28,30.19,17,0,17,0.00
2013-2-16,66.6,53.1,43.6,41.1,38.5,35.3,75,60,37,30.25,30.01,13,0,13,0.00
2013-2-17,66.8,51.4,40.2,44.5,39.3,34.0,81,65,43,30.03,29.92,22,1,22,0.00
2013-2-18,60.2,48.1,40.0,45.0,38.7,34.3,82,70,55,30.00,29.89,35,2,35,0.00
2013-2-19,45.2,41.4,36.0,39.6,36.0,32.1,88,81,73,29.93,29.72,34,2,34,0.26
2013-2-20,60.2,43.3,31.4,38.1,31.9,28.0,89,68,36,30.03,29.80,39,2,39,0.00
2013-2-21,60.0,46.7,37.1,39.8,33.3,28.9,82,62,35,30.15,30.02,36,2,36,0.00
2013-2-22,62.5,48.2,35.5,39.9,35.0,29.2,80,62,41,30.24,30.12,16,0,16,0.00
2013-2-23,60.3,50.2,43.4,42.5,32.9,20.2,84,55,31,30.21,30.12,48,3,48,0.00
2013-2-24,64.5,48.9,37.8,32.3,27.5,20.5,62,45,26,30.23,30.14,26,2,26,0.00
2013-2-25,66.8,50.8,41.4,38.0,32.9,29.6,70,52,30,30.26,30.13,20,1,20,0.00
2013-2-26,66.3,50.3,36.8,32.2,29.1,26.2,70,47,23,30.19,30.09,52,3,52,0.00
2013-2-27,68.3,51.7,38.0,42.4,33.6,26.2,66,51,32,30.33,30.18,14,1,14,0.00
2013-2-28,71.9,56.5,44.5,42.0,38.7,34.5,70,53,31,30.42,30.33,32,1,32,0.00
2013-3-1,74.7,57.1,43.1,48.0,42.3,36.2,79,60,38,30.40,30.22,16,0,16,0.00
2013-3-2,70.4,58.8,48.3,49.6,45.8,41.5,78,63,43,30.23,30.03,13,0,13,0.00
2013-3-3,63.9,57.1,50.3,53.0,48.0,43.9,79,71,63,30.06,29.98,26,0,26,0.00
2013-3-4,65.6,52.7,44.0,51.2,44.8,39.8,88,75,56,30.12,29.99,13,1,13,0.00
2013-3-5,64.3,51.7,43.4,42.5,40.1,36.7,80,66,39,30.03,29.83,26,1,26,0.06
2013-3-6,56.7,50.0,45.6,43.3,40.1,35.8,88,70,48,30.06,29.84,28,3,28,0.21
2013-3-7,58.2,49.1,39.8,41.4,38.5,34.8,84,68,46,30.00,29.84,26,1,26,0.00
2013-3-8,67.2,51.1,38.9,42.8,38.4,33.8,83,64,34,30.02,29.79,23,1,23,0.00
2013-3-9,69.2,53.4,40.7,44.2,36.8,30.5,83,58,26,30.26,30.01,46,3,46,0.00
2013-3-10,66.6,52.8,40.2,45.1,39.1,31.9,75,61,43,30.35,30.23,17,0,17,0.00
2013-3-11,73.8,56.4,42.9,47.2,42.5,37.5,82,62,34,30.25,30.06,17,0,17,0.00
2013-3-12,77.1,59.7,45.2,49.5,45.1,39.4,81,61,36,30.15,30.02,17,0,17,0.00
2013-3-13,78.3,62.2,48.8,53.5,48.0,43.3,82,62,39,30.16,30.03,18,0,18,0.00
2013-3-14,70.4,63.3,57.3,52.6,51.4,49.5,76,65,50,30.06,30.02,3,0,3,0.00
2013-3-15,76.4,60.9,49.5,52.9,47.8,44.4,84,65,37,30.08,29.97,20,1,20,0.00
2013-3-16,76.7,60.0,46.8,51.5,44.5,35.4,83,60,25,30.05,29.94,29,1,29,0.00
2013-3-17,72.0,58.0,45.0,44.5,39.5,36.1,76,53,31,30.11,29.98,28,1,28,0.00
2013-3-18,69.0,56.8,43.6,45.4,40.4,36.8,78,57,35,30.08,29.98,22,1,22,0.00
2013-3-19,71.0,57.8,47.9,50.5,44.4,40.6,86,62,37,30.12,30.03,28,1,28,0.18
2013-3-20,60.5,55.0,51.0,55.4,50.9,47.3,90,86,78,30.09,30.04,18,1,18,0.41
2013-3-21,66.8,54.7,46.1,50.3,42.3,29.9,90,67,30,30.09,29.96,30,2,30,0.00
2013-3-22,66.5,53.2,41.6,42.7,27.6,20.4,100,40,20,30.07,29.98,57,4,57,0.00
2013-3-23,69.0,53.4,40.7,35.4,30.4,26.7,58,44,24,30.13,30.01,21,1,21,0.00
2013-3-24,75.3,57.8,43.8,42.7,38.1,34.5,73,51,26,30.07,29.91,20,0,20,0.00
2013-3-25,70.4,58.5,45.2,49.7,42.7,36.6,100,57,40,29.99,29.86,24,1,24,0.00
2013-3-26,71.7,57.0,45.8,48.8,43.7,39.2,79,63,41,29.98,29.87,16,0,16,0.00
2013-3-27,72.8,58.4,48.6,52.3,46.6,41.3,77,66,46,29.99,29.91,33,1,33,0.00
2013-3-28,69.0,60.3,54.2,51.7,49.4,47.5,80,68,50,30.08,29.99,19,0,19,0.00
2013-3-29,79.8,62.8,48.8,51.2,47.8,43.9,84,61,34,30.08,29.95,22,1,22,0.00
2013-3-30,75.6,62.0,51.3,54.6,48.9,44.6,79,63,42,30.02,29.91,20,0,20,0.00
2013-3-31,71.9,59.7,54.0,54.2,50.5,46.3,89,73,47,30.07,29.94,34,1,34,1.06
2013-4-1,71.3,59.2,51.7,52.6,49.7,47.3,88,73,46,30.13,30.02,19,0,20,0.00
2013-4-2,74.2,59.4,46.8,53.3,48.6,42.7,86,69,42,30.15,30.02,29,1,29,0.00
2013-4-3,78.3,60.6,48.8,54.3,49.4,44.2,85,69,42,30.12,29.92,18,0,18,0.00
2013-4-4,63.9,57.1,51.5,56.7,50.8,43.5,90,80,60,30.09,29.94,36,1,36,0.37
2013-4-5,68.1,58.5,52.4,51.9,49.8,47.5,87,73,54,30.14,30.05,19,0,19,0.00
2013-4-6,66.6,57.6,51.3,54.5,49.9,46.0,85,76,61,30.16,30.06,21,0,22,0.00
2013-4-7,69.0,57.1,50.6,53.5,47.7,42.1,84,71,55,30.12,29.77,52,3,52,0.00
2013-4-8,69.3,56.9,47.0,46.1,37.4,31.1,85,52,27,29.97,29.71,58,6,58,0.02
2013-4-9,74.6,60.9,47.0,63.6,35.6,17.3,100,41,24,30.04,29.96,49,5,49,0.00
2013-4-10,56.9,54.3,51.3,38.5,35.7,17.9,60,50,22,30.15,30.03,0,0,0,0.00
2013-4-11,79.1,69.3,53.5,52.0,44.9,39.4,80,44,27,29.96,29.75,42,2,42,0.00
2013-4-12,81.6,64.3,49.4,51.5,45.5,38.9,77,54,23,29.87,29.73,16,0,16,0.00
2013-4-13,76.5,63.0,51.3,52.9,47.0,42.0,72,57,40,29.85,29.71,18,0,18,0.00
2013-4-14,77.8,61.0,47.0,45.9,40.5,30.9,82,51,20,29.87,29.68,36,2,36,0.00
2013-4-15,66.3,52.9,47.0,46.0,42.3,36.7,80,68,44,29.87,29.77,38,2,38,0.02
2013-4-16,69.0,55.5,42.9,37.5,30.4,24.2,71,42,21,30.13,29.87,59,4,59,0.00
2013-4-17,71.5,58.0,44.5,31.0,27.6,24.1,51,33,20,30.23,30.13,50,4,50,0.00
2013-4-18,77.4,60.0,42.9,39.5,33.3,28.3,67,40,19,30.26,30.13,23,0,23,0.00
2013-4-19,83.2,65.1,47.7,47.9,43.3,38.2,74,48,27,30.22,29.99,16,0,16,0.00
2013-4-20,84.3,67.8,54.6,46.7,41.3,33.1,61,42,18,30.06,29.90,32,2,32,0.00
2013-4-21,87.5,68.9,51.2,50.2,44.5,39.8,69,45,19,30.00,29.85,36,1,36,0.00
2013-4-22,90.0,71.0,55.1,50.7,44.0,35.3,69,42,18,29.93,29.77,28,2,28,0.00
2013-4-23,86.0,69.5,55.1,44.3,35.5,28.6,49,31,15,29.89,29.76,31,2,31,0.00
2013-4-24,89.9,68.4,51.3,49.5,41.8,33.5,71,44,14,29.83,29.67,24,2,24,0.00
2013-4-25,75.3,61.3,50.6,57.7,46.9,44.0,80,61,38,30.05,29.82,29,1,29,0.00
2013-4-26,83.6,62.0,49.5,52.7,48.0,43.5,81,63,33,30.18,30.04,14,0,14,0.00
2013-4-27,88.8,68.3,51.2,57.0,50.8,44.7,79,57,31,30.18,29.96,17,0,17,0.00
2013-4-28,91.1,72.5,54.6,55.1,51.0,47.6,78,51,25,30.00,29.79,18,1,18,0.00
2013-4-29,90.5,76.8,60.0,61.8,49.9,42.0,100,43,19,29.84,29.67,36,1,36,0.00
2013-4-30,84.1,74.7,62.3,39.5,33.7,23.5,39,23,15,29.79,29.71,40,5,40,0.00
2013-5-1,90.7,72.9,57.1,42.2,32.0,22.8,39,23,13,30.02,29.79,36,4,36,0.00
2013-5-2,93.0,73.6,58.0,92.4,35.3,25.4,100,27,12,30.13,29.99,16,1,16,0.00
2013-5-3,94.0,75.5,59.1,53.9,45.7,36.9,60,38,16,30.01,29.71,26,1,26,0.00
2013-5-4,92.0,75.4,62.6,48.4,43.3,34.4,57,35,14,29.73,29.44,17,1,27,0.00
2013-5-5,76.5,65.6,54.5,49.5,46.9,43.2,72,52,33,29.76,29.51,21,1,21,0.00
2013-5-6,74.1,64.7,59.2,53.3,50.3,47.6,78,60,43,29.91,29.76,30,2,30,0.02
2013-5-7,73.8,64.6,57.8,54.1,51.8,48.3,84,64,43,29.99,29.91,16,0,16,0.00
2013-5-8,67.5,60.8,57.1,51.0,49.9,48.6,80,67,52,30.06,29.96,18,0,19,0.00
2013-5-9,84.6,66.4,52.9,57.0,51.4,46.8,80,61,36,30.10,29.95,28,1,28,0.00
2013-5-10,88.2,69.3,53.8,59.7,53.4,47.2,80,59,37,30.13,29.97,16,1,16,0.00
2013-5-11,95.2,75.8,58.7,63.4,56.3,50.2,74,53,32,30.07,29.94,17,0,17,0.00
2013-5-12,96.5,77.6,60.8,56.8,50.3,41.0,67,43,16,30.06,29.91,16,0,16,0.00
2013-5-13,94.3,75.2,59.9,56.8,49.7,43.8,60,43,20,30.01,29.83,22,1,22,0.00
2013-5-14,89.6,73.3,60.5,56.4,52.1,45.6,70,50,30,29.87,29.78,34,1,34,0.00
2013-5-15,78.5,66.3,55.6,49.4,45.8,42.5,62,49,31,29.97,29.87,28,1,28,0.00
2013-5-16,74.6,63.3,56.9,52.1,48.3,44.9,70,59,40,29.97,29.85,35,1,35,0.00
2013-5-17,79.6,63.4,51.8,51.7,44.9,39.3,76,54,26,30.01,29.91,32,1,32,0.00
2013-5-18,84.1,66.6,51.1,50.0,44.6,39.4,68,48,22,30.09,29.97,22,1,22,0.00
2013-5-19,85.9,71.0,56.3,49.4,46.2,41.5,73,45,22,30.05,29.88,40,3,40,0.00
2013-5-20,85.3,66.8,59.0,46.1,43.4,40.6,54,44,22,29.95,29.89,15,1,15,0.00
2013-5-21,65.3,62.1,59.9,45.7,44.7,43.8,56,53,49,29.87,29.81,8,0,8,0.00
2013-5-22,75.7,61.4,49.3,44.6,30.2,23.0,57,33,15,29.95,29.80,42,3,42,0.00
2013-5-23,77.0,61.9,48.4,43.8,39.2,32.6,71,47,22,29.94,29.83,28,1,28,0.00
2013-5-24,82.6,65.1,50.9,44.4,40.1,32.1,65,43,21,29.97,29.84,23,1,23,0.00
2013-5-25,79.7,64.2,52.7,46.9,43.2,39.5,63,48,26,29.97,29.87,27,1,27,0.00
2013-5-26,81.0,65.1,53.6,51.6,47.4,42.5,74,55,28,30.04,29.93,24,1,24,0.00
2013-5-27,66.1,59.7,53.8,53.7,48.3,44.7,88,66,53,30.06,29.95,22,1,22,0.08
2013-5-28,80.8,66.4,56.9,56.2,52.8,49.6,88,65,36,29.96,29.81,17,1,17,0.00
2013-5-29,83.7,68.5,56.9,55.1,51.1,46.2,82,56,30,29.90,29.78,21,1,21,0.04
2013-5-30,89.0,70.6,55.4,54.4,48.3,37.4,74,49,20,29.91,29.82,31,1,31,0.00
2013-5-31,93.8,74.4,56.2,51.5,47.6,41.9,70,43,20,29.94,29.80,42,2,42,0.00
2013-6-1,96.5,79.2,61.6,57.4,50.4,43.6,62,40,18,29.84,29.67,20,1,20,0.00
2013-6-2,98.6,79.5,62.3,55.8,51.9,47.6,66,42,19,29.69,29.54,18,1,18,0.00
2013-6-3,92.9,74.7,61.4,58.5,52.5,48.5,65,48,26,29.74,29.61,28,1,28,0.00
2013-6-4,84.2,67.9,56.2,55.1,51.3,48.1,76,57,35,29.84,29.73,24,1,24,0.00
2013-6-5,89.5,69.4,54.5,58.7,52.4,47.5,79,57,33,29.94,29.76,18,1,18,0.00
2013-6-6,94.8,73.2,56.2,62.2,54.3,48.1,77,54,32,29.87,29.70,16,0,16,0.00
2013-6-7,104.3,80.8,60.8,64.0,57.6,50.7,71,49,22,29.80,29.61,25,1,25,0.00
2013-6-8,107.6,86.7,69.1,65.3,59.8,54.3,69,44,21,29.66,29.54,24,1,24,0.00
2013-6-9,80.1,69.4,61.0,56.7,53.5,51.3,71,58,40,29.80,29.64,42,3,42,0.00
2013-6-10,74.7,64.7,57.4,53.1,51.5,48.4,78,63,43,29.89,29.76,31,2,31,0.00
2013-6-11,85.8,71.3,57.2,57.2,52.7,49.4,76,54,34,29.93,29.79,19,1,19,0.00
2013-6-12,90.2,73.6,60.8,54.0,48.8,41.8,67,45,21,29.89,29.80,28,1,28,0.00
2013-6-13,89.2,72.2,58.0,49.3,42.9,33.3,58,38,15,30.02,29.88,24,1,24,0.00
2013-6-14,91.3,74.6,61.0,48.2,43.6,39.6,52,35,19,29.90,29.73,33,1,33,0.00
2013-6-15,92.4,74.1,58.5,51.8,45.7,39.6,62,39,17,29.88,29.74,28,1,28,0.00
2013-6-16,94.0,74.5,58.5,53.3,48.7,44.8,64,43,20,29.98,29.87,30,1,30,0.00
2013-6-17,89.4,72.4,59.2,53.5,49.5,45.5,66,47,23,29.99,29.88,42,1,42,0.00
2013-6-18,79.7,66.7,57.4,52.4,48.8,42.9,76,55,30,29.95,29.83,44,2,44,0.00
2013-6-19,82.3,68.2,54.9,48.7,43.5,32.6,70,45,18,30.00,29.89,26,2,26,0.00
2013-6-20,88.4,71.6,55.4,49.9,46.0,38.4,66,43,19,29.94,29.82,24,1,24,0.00
2013-6-21,90.7,74.4,56.9,52.0,47.5,42.4,67,42,21,29.90,29.80,29,1,29,0.00
2013-6-22,95.9,76.8,59.0,52.2,48.0,38.2,67,40,14,29.85,29.71,26,1,26,0.00
2013-6-23,74.8,67.2,60.5,59.0,53.8,47.6,77,63,44,29.80,29.72,28,1,28,0.00
2013-6-24,67.7,63.3,61.4,59.6,57.0,54.0,88,80,68,29.87,29.73,17,0,17,0.18
2013-6-25,72.8,66.3,61.7,66.3,61.4,58.4,89,84,78,29.94,29.84,14,0,14,0.31
2013-6-26,89.8,74.5,61.9,64.7,61.1,58.0,88,66,40,29.99,29.89,27,1,27,0.00
2013-6-27,99.1,79.6,63.5,64.8,60.1,56.0,81,55,28,30.00,29.90,22,1,23,0.00
2013-6-28,104.5,85.2,67.1,66.6,61.7,56.4,77,49,21,29.94,29.78,22,1,22,0.00
2013-6-29,106.5,88.6,70.9,66.9,61.5,54.8,68,43,21,29.83,29.68,25,2,25,0.00
2013-6-30,107.3,88.4,70.9,64.9,60.4,56.6,66,42,20,29.75,29.63,17,1,26,0.00
2013-7-1,105.9,88.0,71.1,65.8,59.9,55.0,58,41,20,29.76,29.68,21,1,21,0.00
2013-7-2,102.8,87.9,75.4,66.0,60.7,52.6,62,42,24,29.81,29.70,36,2,36,0.00
2013-7-3,105.9,86.1,70.9,65.9,60.4,53.3,61,44,26,29.81,29.64,21,1,21,0.00
2013-7-4,108.9,89.7,75.4,66.9,62.3,54.9,62,43,20,29.67,29.53,24,1,24,0.00
2013-7-5,90.0,77.5,66.4,55.4,51.3,46.0,54,41,29,29.68,29.58,16,2,28,0.00
2013-7-6,92.7,74.6,58.5,57.5,52.9,48.7,75,50,29,29.73,29.62,18,0,20,0.00
2013-7-7,97.1,77.8,61.6,57.1,50.1,36.6,67,42,18,29.75,29.66,22,1,22,0.00
2013-7-8,98.0,77.5,59.6,56.3,48.8,41.2,71,40,16,29.88,29.75,20,1,21,0.00
2013-7-9,102.4,82.9,65.2,55.9,50.3,44.1,54,36,15,29.95,29.82,21,1,21,0.00
2013-7-10,99.2,81.6,66.2,56.5,49.2,41.1,57,35,16,29.87,29.76,14,1,27,0.00
2013-7-11,94.2,74.2,56.9,52.7,47.4,35.2,72,43,14,29.85,29.74,22,1,22,0.00
2013-7-12,91.8,73.2,57.2,55.7,51.1,47.0,75,49,24,29.86,29.75,20,1,20,0.00
2013-7-13,97.8,78.3,60.5,68.9,48.8,36.5,100,40,14,29.88,29.79,24,1,24,0.00
2013-7-14,98.0,78.7,62.3,54.9,50.1,46.0,60,39,20,29.90,29.76,22,0,22,0.00
2013-7-15,89.4,71.8,56.3,54.2,49.5,41.5,74,48,20,29.83,29.70,22,1,22,0.00
2013-7-16,80.8,66.8,56.0,53.6,51.1,48.6,80,59,35,29.95,29.77,36,2,36,0.00
2013-7-17,94.0,73.7,58.3,56.4,51.9,41.2,75,52,18,30.03,29.90,25,0,25,0.00
2013-7-18,99.3,78.4,59.2,56.0,50.9,42.6,74,44,16,29.98,29.80,21,1,21,0.00
2013-7-19,101.8,80.5,61.4,57.6,53.3,49.6,68,42,19,29.85,29.68,17,0,17,0.00
2013-7-20,101.0,80.9,63.5,60.1,54.8,50.5,64,43,23,29.76,29.59,20,1,20,0.00
2013-7-21,95.8,78.9,64.6,59.1,52.6,44.9,62,42,24,29.79,29.64,34,1,34,0.00
2013-7-22,92.1,77.5,65.7,55.5,50.5,37.8,64,41,18,29.89,29.79,27,1,27,0.00
2013-7-23,94.1,78.8,69.1,53.6,48.6,38.3,49,36,18,29.92,29.78,26,1,26,0.00
2013-7-24,100.3,81.5,65.0,59.5,53.8,46.1,61,40,24,29.90,29.77,20,1,20,0.00
2013-7-25,99.3,82.2,67.5,60.9,54.9,50.3,56,40,27,29.89,29.80,35,1,35,0.00
2013-7-26,97.8,77.9,63.2,60.1,53.8,49.7,63,45,28,29.99,29.85,24,1,24,0.00
2013-7-27,93.4,75.4,59.6,59.1,54.3,50.8,74,50,30,29.91,29.72,22,1,22,0.00
2013-7-28,92.4,74.0,60.7,59.4,53.5,47.1,72,51,29,29.79,29.66,31,1,31,0.00
2013-7-29,83.7,68.4,56.0,53.5,51.1,48.6,78,56,33,29.92,29.73,25,1,25,0.00
2013-7-30,91.8,71.5,56.7,57.8,52.2,45.5,78,54,26,30.03,29.88,15,0,15,0.00
2013-7-31,89.8,71.1,56.3,54.8,50.4,46.1,76,51,24,30.01,29.85,31,1,31,0.00
2013-8-1,89.6,72.1,58.1,53.5,48.7,45.3,68,46,23,29.99,29.84,13,1,21,0.00
2013-8-2,94.3,75.2,57.2,55.0,50.1,45.2,72,45,20,29.91,29.76,26,0,26,0.00
2013-8-3,93.6,74.9,58.9,54.7,50.0,44.6,69,45,20,29.91,29.77,24,0,24,0.00
2013-8-4,92.3,72.9,56.5,54.6,50.5,43.7,76,49,23,29.93,29.81,16,0,16,0.00
2013-8-5,92.1,71.8,55.6,54.1,49.9,43.0,82,51,20,29.95,29.81,24,1,24,0.00
2013-8-6,87.0,68.7,55.4,54.0,51.0,47.8,79,56,27,29.95,29.84,24,1,24,0.00
2013-8-7,78.8,66.2,56.7,56.3,52.9,50.2,81,64,39,30.04,29.92,33,2,33,0.00
2013-8-8,85.9,69.3,56.9,56.4,52.5,48.1,82,59,31,29.96,29.81,18,1,18,0.00
2013-8-9,83.9,68.4,56.0,56.5,52.2,49.8,81,59,33,29.90,29.81,22,1,22,0.00
2013-8-10,88.4,69.7,56.7,57.1,53.4,51.1,82,61,30,29.98,29.86,26,1,26,0.00
2013-8-11,91.5,76.1,59.2,58.1,53.9,50.8,80,50,26,29.96,29.80,20,1,24,0.00
2013-8-12,91.9,74.4,59.4,56.9,50.8,43.3,73,47,20,29.92,29.82,20,1,20,0.00
2013-8-13,96.6,77.2,59.2,55.7,50.7,46.9,67,43,20,29.93,29.79,13,1,19,0.00
2013-8-14,96.6,78.0,61.0,55.1,50.9,47.3,64,42,20,29.90,29.77,20,0,20,0.00
2013-8-15,95.9,77.8,62.6,60.3,56.0,51.5,72,50,26,29.89,29.79,18,1,18,0.00
2013-8-16,97.5,80.1,65.9,63.6,56.8,18.9,72,49,24,29.90,29.81,32,1,32,0.00
2013-8-17,96.0,79.3,64.6,58.8,54.0,48.3,63,43,24,29.90,29.73,22,1,22,0.00
2013-8-18,97.4,80.8,65.3,62.9,57.8,54.4,71,48,25,29.81,29.68,11,0,11,0.00
2013-8-19,99.6,83.7,72.2,63.1,59.8,55.2,65,47,25,29.81,29.67,26,0,26,0.00
2013-8-20,95.5,79.5,67.1,64.3,57.0,52.6,65,47,31,29.80,29.68,18,0,18,0.00
2013-8-21,90.4,73.7,61.7,56.9,52.6,48.1,70,50,26,29.86,29.74,23,1,23,0.00
2013-8-22,86.5,69.8,59.2,56.0,51.9,46.8,73,55,28,29.88,29.75,23,1,23,0.00
2013-8-23,89.1,71.5,57.4,57.1,52.5,50.0,77,55,28,29.86,29.68,18,0,18,0.00
2013-8-24,87.9,72.8,61.0,56.4,52.5,47.7,68,51,26,29.81,29.71,26,1,26,0.00
2013-8-25,87.6,72.9,61.9,61.8,57.2,54.4,81,60,34,29.88,29.77,24,0,24,0.00
2013-8-26,87.9,71.5,59.9,56.6,52.4,45.5,81,56,24,29.94,29.79,18,0,18,0.00
2013-8-27,91.3,74.8,59.4,57.8,52.1,48.8,72,48,26,29.83,29.69,20,1,20,0.00
2013-8-28,92.2,75.7,61.7,59.5,54.0,44.5,74,50,20,29.84,29.76,21,0,21,0.00
2013-8-29,91.9,75.8,61.9,65.7,56.5,50.2,100,55,26,29.97,29.84,21,0,21,0.00
2013-8-30,94.6,77.7,61.7,61.0,55.6,48.6,74,51,22,29.97,29.81,24,0,24,0.00
2013-8-31,95.1,78.1,63.7,56.9,51.4,41.9,66,42,20,29.89,29.77,26,1,26,0.00
2013-9-1,90.1,75.6,63.5,67.3,52.5,46.8,100,47,25,29.87,29.76,18,1,18,0.00
2013-9-2,74.8,68.9,65.1,66.4,60.8,56.5,86,76,61,29.89,29.80,14,0,14,0.33
2013-9-3,85.8,71.8,62.1,60.1,54.8,47.4,82,58,31,29.93,29.82,18,1,18,0.00
2013-9-4,86.1,72.0,61.0,57.9,53.1,45.4,76,54,26,29.97,29.82,21,1,21,0.00
2013-9-5,85.6,71.6,60.3,57.3,52.5,44.7,75,54,26,29.95,29.82,21,1,21,0.00
2013-9-6,89.7,72.7,57.2,54.1,50.0,41.0,77,49,19,29.93,29.75,24,1,24,0.00
2013-9-7,96.8,78.2,60.5,54.8,50.8,46.3,71,43,19,29.83,29.71,19,1,19,0.00
2013-9-8,96.8,80.5,62.3,54.9,51.5,44.3,67,40,18,29.79,29.64,25,2,25,0.00
2013-9-9,96.4,79.2,63.7,58.2,52.5,48.8,63,42,22,29.73,29.57,17,0,17,0.00
2013-9-10,88.2,73.7,63.9,58.6,54.3,49.4,74,52,33,29.80,29.61,25,1,25,0.00
2013-9-11,82.1,68.8,60.3,58.3,55.7,53.5,80,64,42,29.92,29.79,16,1,16,0.00
2013-9-12,86.5,72.8,61.0,61.3,57.1,54.5,82,60,37,29.92,29.76,17,0,17,0.00
2013-9-13,90.9,73.4,60.7,61.7,56.5,51.8,79,58,35,29.83,29.62,19,0,19,0.00
2013-9-14,87.6,71.4,60.1,58.3,54.2,50.5,74,56,35,29.74,29.60,18,0,18,0.00
2013-9-15,87.1,69.6,57.2,55.9,51.6,46.5,76,56,27,29.79,29.67,18,1,18,0.00
2013-9-16,87.8,71.3,59.0,59.6,54.2,50.7,79,58,32,29.84,29.66,15,0,15,0.00
2013-9-17,82.6,68.4,57.6,53.2,51.2,46.3,76,56,33,29.81,29.72,21,1,21,0.00
2013-9-18,85.5,69.0,57.4,52.6,47.2,43.4,69,49,25,29.87,29.72,30,2,30,0.00
2013-9-19,90.7,70.9,55.3,50.5,45.8,42.1,67,44,21,29.82,29.66,20,0,20,0.00
2013-9-20,82.2,68.0,56.9,57.2,49.2,41.9,74,52,34,29.80,29.68,42,2,42,0.00
2013-9-21,69.2,61.2,56.2,55.9,54.0,51.1,87,77,57,29.85,29.75,32,0,32,0.38
2013-9-22,75.1,61.6,51.1,53.9,50.1,46.5,86,68,44,29.96,29.84,25,1,25,0.00
2013-9-23,82.6,65.7,52.4,56.6,51.8,47.0,83,63,38,29.99,29.85,26,1,26,0.00
2013-9-24,79.5,66.8,59.6,55.2,51.5,47.2,75,60,35,29.94,29.77,24,2,24,0.00
2013-9-25,74.7,62.2,53.3,49.6,44.1,35.4,79,55,29,29.87,29.74,30,1,30,0.00
2013-9-26,75.7,62.2,51.1,41.1,39.2,37.1,63,45,27,29.92,29.76,39,4,42,0.00
2013-9-27,79.5,62.0,49.3,42.2,38.9,34.2,64,45,22,30.07,29.92,23,1,23,0.00
2013-9-28,84.4,65.6,50.2,46.1,41.2,36.3,72,45,19,30.07,29.91,16,0,16,0.00
2013-9-29,77.5,66.1,57.4,56.3,52.5,46.0,77,62,47,30.08,29.95,21,1,21,0.00
2013-9-30,79.5,67.5,60.5,58.9,56.2,53.7,79,68,48,30.03,29.87,21,0,21,0.00
2013-10-1,77.7,64.2,54.4,55.6,48.0,42.9,80,58,33,29.97,29.84,20,0,20,0.00
2013-10-2,80.5,63.3,51.5,51.0,45.6,40.2,77,56,27,29.95,29.85,19,0,19,0.00
2013-10-3,74.7,63.3,52.4,43.9,33.9,25.3,60,36,20,30.01,29.83,52,3,52,0.00
2013-10-4,82.1,66.2,55.1,38.2,33.2,26.8,50,31,18,30.07,29.94,38,2,38,0.00
2013-10-5,82.9,63.0,47.3,42.3,37.7,33.3,65,43,18,30.19,30.06,12,0,12,0.00
2013-10-6,83.1,64.3,49.1,45.3,40.1,34.9,66,44,20,30.12,29.96,18,0,18,0.00
2013-10-7,85.6,66.5,52.0,43.2,39.2,34.1,62,40,18,29.97,29.79,17,0,17,0.00
2013-10-8,74.0,61.2,52.0,43.2,39.5,36.6,59,46,29,29.86,29.62,22,1,22,0.00
2013-10-9,74.4,60.5,50.0,43.0,40.0,38.0,65,49,31,29.71,29.55,18,0,18,0.00
2013-10-10,72.1,60.3,51.8,45.6,42.6,40.4,69,53,35,29.95,29.70,20,1,20,0.00
2013-10-11,76.3,60.2,47.7,47.9,43.7,39.2,74,57,34,30.04,29.91,21,0,21,0.00
2013-10-12,76.6,59.8,47.9,47.2,42.6,39.1,77,55,29,29.98,29.81,20,0,20,0.00
2013-10-13,74.6,59.9,50.0,46.2,42.0,38.9,76,53,32,30.00,29.85,36,1,36,0.00
2013-10-14,76.9,59.2,46.1,44.8,40.8,37.1,79,54,26,30.10,29.96,18,0,18,0.00
2013-10-15,79.1,60.9,47.5,42.0,38.5,35.1,71,48,21,30.03,29.89,24,1,24,0.00
2013-10-16,81.3,61.6,47.5,43.9,39.4,35.5,67,47,23,30.09,29.94,19,0,19,0.00
2013-10-17,79.6,61.5,47.3,44.1,40.3,35.8,71,49,23,30.06,29.90,24,0,24,0.00
2013-10-18,80.7,61.8,47.3,44.4,39.8,35.6,67,47,23,30.04,29.92,15,0,15,0.00
2013-10-19,82.3,62.9,48.4,45.8,41.9,38.8,70,49,24,30.06,29.93,13,0,13,0.00
2013-10-20,81.1,62.2,47.3,45.0,41.6,38.5,72,50,26,29.98,29.83,16,0,16,0.00
2013-10-21,80.4,62.9,49.7,47.6,43.7,39.6,69,52,27,29.97,29.85,10,0,10,0.00
2013-10-22,81.4,62.6,48.8,45.6,42.6,39.9,73,52,25,29.99,29.85,14,0,14,0.00
2013-10-23,80.7,61.6,47.5,44.8,40.9,36.4,71,50,22,29.92,29.80,18,0,18,0.00
2013-10-24,71.5,57.9,47.3,48.4,44.6,40.0,82,63,42,30.03,29.87,16,0,16,0.00
2013-10-25,74.8,58.4,46.4,47.7,43.8,40.5,81,61,31,30.15,30.03,17,0,17,0.00
2013-10-26,77.5,59.9,47.5,47.6,43.3,39.2,76,57,31,30.14,29.97,17,0,17,0.00
2013-10-27,72.2,56.2,47.0,47.1,42.4,37.4,74,61,37,29.98,29.56,49,3,49,0.00
2013-10-28,61.9,54.1,46.1,44.1,41.0,37.6,83,63,43,29.82,29.56,21,1,21,0.00
2013-10-29,53.1,52.8,52.4,43.0,42.1,41.0,70,67,64,29.93,29.82,7,0,7,0.00
2013-10-30,66.1,57.5,41.7,44.5,41.2,-32.4,84,56,39,30.14,30.01,16,1,16,0.00
2013-10-31,69.3,54.0,42.1,43.8,41.0,37.1,84,64,38,30.17,30.04,14,0,14,0.00
2013-11-1,73.5,56.5,44.3,46.6,42.2,39.3,84,62,34,30.16,29.97,14,0,14,0.00
2013-11-2,73.9,58.0,44.8,46.6,42.2,36.7,80,58,36,30.00,29.82,20,0,20,0.00
2013-11-3,61.9,53.9,46.4,36.5,29.2,24.9,51,39,28,30.00,29.86,34,2,34,0.00
2013-11-4,66.8,53.2,16.6,50.2,28.6,-7.7,100,41,24,30.02,29.86,49,3,49,0.00
2013-11-5,67.7,58.4,43.0,61.7,31.5,21.8,100,38,27,30.17,30.02,17,0,17,0.00
2013-11-6,70.4,61.5,52.2,40.7,37.4,32.9,63,42,27,30.25,30.15,13,0,13,0.00
2013-11-7,74.2,58.2,47.9,54.4,39.0,-1.7,100,52,25,30.16,30.02,10,0,10,0.00
2013-11-8,72.5,62.2,45.2,42.1,39.1,31.3,72,45,29,30.04,29.91,12,0,12,0.00
2013-11-9,73.1,56.7,44.8,43.7,41.4,38.6,85,59,33,30.02,29.94,10,0,10,0.00
2013-11-10,72.7,57.7,44.6,57.2,41.2,-22.1,100,59,31,30.08,29.99,12,0,12,0.00
2013-11-11,70.7,59.8,47.3,48.2,41.2,37.3,100,53,30,30.15,30.04,11,0,11,0.00
2013-11-12,69.5,58.2,51.3,44.5,41.5,39.1,68,55,36,30.24,30.11,20,0,20,0.00
2013-11-13,73.6,57.0,44.8,44.0,41.0,37.6,77,57,31,30.21,30.02,18,0,18,0.00
2013-11-14,66.4,55.2,48.4,48.0,43.1,38.1,78,64,46,30.06,29.80,14,0,14,0.00
2013-11-15,66.2,52.0,41.9,44.3,37.8,33.3,84,62,31,29.81,29.66,24,0,24,0.00
2013-11-16,63.5,51.6,43.9,42.5,37.4,32.9,70,59,42,29.91,29.72,17,0,17,0.00
2013-11-17,63.2,51.6,42.5,46.8,41.4,35.3,78,68,54,30.04,29.90,13,0,13,0.00
2013-11-18,62.1,52.6,42.3,46.6,43.1,37.5,84,70,55,30.13,30.03,16,0,16,0.00
2013-11-19,59.9,54.3,49.7,51.2,47.6,43.0,89,78,66,30.10,29.93,11,0,11,0.49
2013-11-20,56.0,53.5,52.4,53.1,50.9,49.5,92,91,89,29.95,29.81,16,0,16,0.39
2013-11-21,62.8,53.9,46.6,50.3,39.0,26.3,91,61,36,29.99,29.83,37,2,37,0.35
2013-11-22,69.8,53.9,45.4,39.7,27.1,15.9,79,40,15,30.02,29.88,55,3,55,0.00
2013-11-23,61.9,49.7,41.6,46.0,40.6,36.8,85,72,48,30.10,29.97,17,0,17,0.00
2013-11-24,62.1,49.4,40.7,44.9,40.3,35.6,83,72,50,30.24,30.10,9,0,9,0.00
2013-11-25,62.3,48.5,39.6,44.5,39.6,34.8,84,72,49,30.33,30.24,10,0,10,0.00
2013-11-26,60.1,48.3,40.5,45.4,40.3,35.5,85,75,52,30.27,30.04,10,0,10,0.00
2013-11-27,61.9,50.5,42.8,46.3,41.7,38.3,85,73,51,30.05,29.84,14,0,14,0.00
2013-11-28,66.1,51.9,43.6,44.0,40.5,37.2,82,67,39,30.05,29.86,14,0,14,0.00
2013-11-29,65.7,51.6,41.9,42.8,39.9,36.2,80,66,40,30.20,30.04,17,0,17,0.00
2013-11-30,64.3,51.1,43.0,42.9,40.3,37.6,82,68,44,30.26,30.15,15,0,15,0.00
2013-12-1,64.1,50.8,41.6,44.9,40.9,36.5,83,70,48,30.33,30.19,10,0,10,0.00
2013-12-2,65.3,52.4,43.0,63.5,42.6,37.6,100,70,49,30.21,29.89,20,1,20,0.00
2013-12-3,54.2,48.6,38.3,49.1,33.6,21.6,100,59,29,29.90,29.79,36,1,36,0.00
2013-12-4,47.7,37.9,31.1,24.2,21.7,18.2,71,53,32,30.06,29.89,20,0,20,0.00
2013-12-5,47.2,35.2,27.5,25.6,21.6,17.3,76,60,31,30.15,30.05,18,0,18,0.00
2013-12-6,46.4,38.1,30.8,33.8,27.0,20.6,87,65,48,30.20,29.91,31,1,31,0.45
2013-12-7,45.7,37.0,31.7,35.3,31.0,26.3,88,79,60,30.23,29.89,31,1,31,0.06
2013-12-8,41.6,33.0,27.7,27.1,24.0,21.5,83,70,49,30.31,30.23,12,0,20,0.00
2013-12-9,46.6,34.2,25.0,29.4,24.9,19.7,83,70,45,30.43,30.30,13,0,13,0.00
2013-12-10,49.5,37.1,27.9,29.8,26.6,22.8,82,68,40,30.43,30.20,11,0,11,0.00
2013-12-11,52.9,40.0,30.8,33.5,29.4,26.1,83,68,43,30.27,30.18,17,0,17,0.00
2013-12-12,56.5,41.3,30.4,33.5,30.1,25.6,83,67,40,30.28,30.15,13,0,13,0.00
2013-12-13,56.0,42.6,32.2,32.7,30.4,26.1,79,64,40,30.32,30.21,18,1,18,0.00
2013-12-14,56.7,44.4,35.6,35.2,31.9,28.4,77,63,41,30.41,30.30,14,0,14,0.00
2013-12-15,58.3,43.1,32.8,36.8,32.6,27.7,83,68,41,30.37,30.23,3,0,11,0.00
2013-12-16,59.4,44.6,34.9,40.1,34.9,30.2,83,70,46,30.26,30.12,7,0,7,0.00
2013-12-17,59.6,46.5,37.6,41.1,36.9,32.6,83,70,48,30.20,30.02,12,0,12,0.00
2013-12-18,57.2,47.9,40.7,43.3,40.0,36.1,84,74,58,30.03,29.70,11,0,11,0.00
2013-12-19,58.1,47.6,41.0,41.3,32.1,22.5,85,59,31,29.89,29.65,54,3,54,0.00
2013-12-20,55.4,43.6,32.9,31.7,25.6,20.1,70,51,28,30.00,29.88,20,0,20,0.00
2013-12-21,56.3,44.8,37.6,37.1,33.1,31.0,78,64,42,30.10,29.96,15,0,21,0.00
2013-12-22,58.7,45.6,37.1,38.1,34.7,31.0,81,67,44,30.29,30.09,10,0,10,0.00
2013-12-23,60.3,47.3,38.5,40.4,36.4,33.1,81,67,45,30.40,30.28,14,0,14,0.00
2013-12-24,60.7,46.6,37.1,40.9,36.7,32.1,83,70,47,30.33,30.18,10,0,10,0.00
2013-12-25,60.8,46.6,38.0,41.7,36.6,31.8,81,69,48,30.31,30.20,14,0,18,0.00
2013-12-26,62.8,46.3,35.6,39.0,33.8,29.4,79,64,36,30.28,30.17,10,0,10,0.00
2013-12-27,56.5,44.3,36.5,38.6,33.6,29.9,77,67,45,30.26,30.12,11,0,11,0.00
2013-12-28,62.5,45.7,33.1,34.3,31.1,27.3,81,60,33,30.13,29.98,35,0,35,0.00
2013-12-29,60.7,45.8,35.8,37.9,33.0,28.7,76,62,39,30.19,30.08,7,0,7,0.00
2013-12-30,59.9,46.0,34.7,37.5,33.8,28.6,79,64,41,30.25,30.18,13,0,13,0.00
2013-12-31,60.5,46.9,39.1,50.6,33.6,30.9,100,62,38,30.25,30.12,16,0,16,0.00
2014-1-1,61.6,46.2,37.1,36.5,32.9,29.6,76,61,36,30.22,30.10,14,0,14,0.00
2014-1-2,61.4,47.1,36.7,38.7,34.9,30.5,80,64,39,30.18,30.04,10,0,14,0.00